STARLINK-32845, 62815

Orbit data source: Space-Track

STARLINK-32845, 62815 is a payload satellite owned by SpaceX/Seattle (US) in LEO that was launched on Fri, 24 Jan 2025 UTC via an FALCON 9 launch vehicle from the Air Force Western Test Range (AFWTR). Payload-class satellites include a variety of spacecraft equipped with specific instruments for various scientific and technological missions. These include communications satellites like Starlink; space stations such as the ISS; scientific satellites like the Hubble; Earth observation satellites from companies like Planet Labs, Umbra, and HawkEye 360; GPS; miniature CubeSats for education and research; and military/defense satellites.

Loading next visibility...
Identifier
62815, 2025-018K
Orbit
LEO
Country
Flag of USUS
Related business
Manufacturer
SpaceX/Seattle
Mission
Operational Commercial Communications
Bus & Motor
STARLINK V2M, Unknown motor
Mass
730 kg wet, ~700 kg dry
Launch date (UTC)
2025-01-24 (9 months ago)
Launch vehicle
FALCON 9
Launch site
Air Force Western Test Range (AFWTR)
Object type
Payload
Rocket body
Debris
Shape & HBR
Box + 2 Pan, 17.7 m
Radar Cross Section
33.884 m², Large (>1 m²)

Expand to show TLE details & history
Last TLE update: 14 hours ago

TLE from 14 hours ago
0 STARLINK-32845
1 62815U 25018K   25311.00003472  .00056895  00000-0  19217-2 0  9991
2 62815  53.1590 159.2591 0001061  80.6486  46.0392 15.30144589  5884
Epoch: 2025-11-07T00:00Z
TLE epoch observation values (Epoch: 2025-11-07T00:00:02.999Z)
Latitude
40.04747°
Longitude
-105.97698°
Altitude
478.475 km
Speed
7.632 km/s
True Right ascension
20h 01m 56s
True Declination
39° 52' 17"
Sunlit
Object was in daylight at epoch
Visualization orbit readout
Latitude
Unknown
Longitude
Unknown
Altitude
Unknown
Speed
Unknown
Apparent Right ascension
Unknown
Apparent Declination
Unknown
Sunlit
N/A
Visualization observer readout
Local Sidereal Time
10:11:15
Azimuth
Unknown
Elevation
Unknown
Doppler factor
Unknown
Orbital elements
Apogee altitude
476.364 km
Perigee altitude
474.91 km
Semi-major axis
6,853.774 km
Eccentricity
0.00011
Inclination
53.159°
RAAN
159.2591°
Arg. of periapsis
80.6486°
True anomaly
46.04795°
Mean anomaly
46.0392°
Eccentric anomaly
46.04358°
Mean motion
3.82515 °/min
Orbital period
94.11 mins
BSTAR
0.0019217
Loading maneuver chart data...
Computing Atmospheric mass density...
Loading historical data...
Loading historical data...
Loading historical data...
Loading historical data...
Loading historical data...
Loading historical data...
Loading historical data...

Documentation

Showing up to 5 results
|